• In United Kingdom
  • List of Countries
  • For 7 days
  • Water Temperature
  • Satellite Maps
  • Weather Map
  • Weather Widgets
  • user-avatar
    Login

    Hourly Weather Sankt Polten

    Today, 22 September, Friday

    Time Temperature Precipitation Wind Pressure Humidity
    00:00 +9°C° 0 mm 2 mps 739 mmHg 90%
    01:00 +8°C° 0 mm 2 mps 739 mmHg 91%
    02:00 +8°C° 0 mm 2 mps 739 mmHg 91%
    03:00 +8°C° 0 mm 2 mps 739 mmHg 91%
    04:00 +8°C° 0 mm 2 mps 739 mmHg 91%
    05:00 +8°C° 0 mm 2 mps 739 mmHg 89%
    06:00 +9°C° 0 mm 2 mps 739 mmHg 88%
    07:00 +9°C° 0 mm 2 mps 739 mmHg 87%
    08:00 +12°C° 0 mm 2 mps 739 mmHg 79%
    09:00 +14°C° 0 mm 2 mps 739 mmHg 71%
    10:00 +16°C° 0 mm 2 mps 739 mmHg 63%
    11:00 +17°C° 0 mm 2 mps 739 mmHg 63%
    12:00 +17°C° 0 mm 2 mps 739 mmHg 63%
    13:00 +19°C° 0 mm 1 mps 739 mmHg 62%
    14:00 +18°C° 0 mm 1 mps 739 mmHg 63%
    15:00 +18°C° 0 mm 1 mps 738 mmHg 65%
    16:00 +18°C° 0 mm 1 mps 738 mmHg 66%
    17:00 +16°C° 0 mm 1 mps 739 mmHg 73%
    18:00 +14°C° 0 mm 1 mps 739 mmHg 80%
    19:00 +13°C° 0 mm 1 mps 739 mmHg 87%
    20:00 +12°C° 0 mm 1 mps 739 mmHg 88%
    21:00 +12°C° 0 mm 1 mps 739 mmHg 90%
    22:00 +12°C° 0 mm 1 mps 740 mmHg 91%
    23:00 +11°C° 0 mm 1 mps 740 mmHg 92%

    Tomorrow, 23 September, Saturday

    Time Temperature Precipitation Wind Pressure Humidity
    00:00 +11°C° 0 mm 1 mps 740 mmHg 92%
    01:00 +11°C° 0 mm 1 mps 740 mmHg 93%
    02:00 +10°C° 0 mm 1 mps 740 mmHg 93%
    03:00 +10°C° 0 mm 1 mps 740 mmHg 93%
    04:00 +10°C° 0 mm 1 mps 740 mmHg 94%
    05:00 +10°C° 0 mm 1 mps 740 mmHg 92%
    06:00 +11°C° 0 mm 1 mps 740 mmHg 91%
    07:00 +11°C° 0 mm 1 mps 740 mmHg 90%
    08:00 +13°C° 0 mm 2 mps 740 mmHg 82%
    09:00 +15°C° 0 mm 2 mps 740 mmHg 75%
    10:00 +17°C° 0 mm 3 mps 739 mmHg 67%
    11:00 +18°C° 0 mm 3 mps 739 mmHg 65%
    12:00 +18°C° 0 mm 3 mps 739 mmHg 63%
    13:00 +19°C° 0 mm 3 mps 738 mmHg 61%
    14:00 +19°C° 0 mm 3 mps 738 mmHg 62%
    15:00 +18°C° 0 mm 3 mps 738 mmHg 64%
    16:00 +18°C° 0 mm 2 mps 738 mmHg 66%
    17:00 +17°C° 0 mm 2 mps 738 mmHg 72%
    18:00 +15°C° 0 mm 2 mps 738 mmHg 79%
    19:00 +14°C° 0 mm 1 mps 738 mmHg 85%
    20:00 +13°C° 0 mm 1 mps 738 mmHg 87%
    21:00 +13°C° 0 mm 1 mps 738 mmHg 88%
    22:00 +12°C° 0 mm 1 mps 738 mmHg 89%
    23:00 +12°C° 0 mm 1 mps 738 mmHg 90%

    Day after tomorrow, 24 September, Sunday

    Time Temperature Precipitation Wind Pressure Humidity
    00:00 +12°C° 0 mm 1 mps 738 mmHg 90%
    01:00 +12°C° 0 mm 1 mps 738 mmHg 91%
    02:00 +12°C° 0.1 mm 1 mps 737 mmHg 91%
    03:00 +11°C° 0.1 mm 1 mps 737 mmHg 92%
    04:00 +11°C° 0.1 mm 1 mps 737 mmHg 92%
    05:00 +12°C° 0.3 mm 1 mps 737 mmHg 92%
    06:00 +12°C° 0.3 mm 1 mps 737 mmHg 91%
    07:00 +12°C° 0.3 mm 1 mps 737 mmHg 91%
    08:00 +14°C° 0.2 mm 1 mps 738 mmHg 86%
    09:00 +15°C° 0.2 mm 2 mps 738 mmHg 82%
    10:00 +16°C° 0.2 mm 2 mps 738 mmHg 77%
    11:00 +17°C° 0.2 mm 2 mps 738 mmHg 73%
    12:00 +18°C° 0.2 mm 2 mps 738 mmHg 69%
    13:00 +19°C° 0.2 mm 2 mps 737 mmHg 66%
    14:00 +19°C° 0.3 mm 1 mps 737 mmHg 68%
    15:00 +19°C° 0.3 mm 1 mps 737 mmHg 70%
    16:00 +19°C° 0.3 mm 1 mps 737 mmHg 72%
    17:00 +16°C° 0.1 mm 1 mps 737 mmHg 77%
    18:00 +15°C° 0.1 mm 1 mps 738 mmHg 83%
    19:00 +13°C° 0.1 mm 1 mps 738 mmHg 89%
    20:00 +13°C° 0 mm 1 mps 738 mmHg 91%
    21:00 +12°C° 0 mm 1 mps 738 mmHg 92%
    22:00 +12°C° 0 mm 1 mps 738 mmHg 94%
    23:00 +12°C° 0 mm 1 mps 738 mmHg 95%

    25 September, Monday

    Time Temperature Precipitation Wind Pressure Humidity
    00:00 +12°C° 0 mm 1 mps 738 mmHg 95%
    01:00 +11°C° 0 mm 1 mps 738 mmHg 96%
    02:00 +11°C° 0.1 mm 1 mps 738 mmHg 96%
    03:00 +11°C° 0.1 mm 1 mps 738 mmHg 96%
    04:00 +11°C° 0.1 mm 1 mps 738 mmHg 96%
    05:00 +12°C° 0.1 mm 1 mps 738 mmHg 96%
    06:00 +12°C° 0.1 mm 1 mps 738 mmHg 95%
    07:00 +13°C° 0.1 mm 1 mps 738 mmHg 95%
    08:00 +14°C° 0.1 mm 1 mps 738 mmHg 91%
    09:00 +15°C° 0.1 mm 2 mps 738 mmHg 88%
    10:00 +16°C° 0.1 mm 2 mps 738 mmHg 84%
    11:00 +16°C° 0.2 mm 2 mps 738 mmHg 83%
    12:00 +16°C° 0.2 mm 2 mps 738 mmHg 82%
    13:00 +17°C° 0.2 mm 2 mps 738 mmHg 81%
    14:00 +16°C° 0.4 mm 2 mps 737 mmHg 82%
    15:00 +16°C° 0.4 mm 2 mps 737 mmHg 84%
    16:00 +16°C° 0.4 mm 2 mps 737 mmHg 85%
    17:00 +15°C° 0.1 mm 2 mps 737 mmHg 89%
    18:00 +14°C° 0.1 mm 2 mps 738 mmHg 93%
    19:00 +13°C° 0.1 mm 1 mps 738 mmHg 96%
    20:00 +12°C° 0 mm 1 mps 738 mmHg 97%
    21:00 +12°C° 0 mm 1 mps 738 mmHg 97%
    22:00 +12°C° 0 mm 1 mps 738 mmHg 97%
    23:00 +12°C° 0 mm 1 mps 738 mmHg 97%

    26 September, Tuesday

    Time Temperature Precipitation Wind Pressure Humidity
    00:00 +11°C° 0 mm 1 mps 738 mmHg 97%
    01:00 +11°C° 0 mm 1 mps 738 mmHg 96%
    02:00 +11°C° 0 mm 1 mps 738 mmHg 96%
    03:00 +11°C° 0 mm 1 mps 738 mmHg 96%
    04:00 +11°C° 0 mm 1 mps 738 mmHg 96%
    05:00 +10°C° 0 mm 0 mps 738 mmHg 95%
    06:00 +10°C° 0 mm 0 mps 738 mmHg 94%
    07:00 +11°C° 0 mm 0 mps 738 mmHg 93%
    08:00 +14°C° 0 mm 1 mps 738 mmHg 86%
    09:00 +15°C° 0 mm 1 mps 738 mmHg 80%
    10:00 +18°C° 0 mm 1 mps 738 mmHg 74%
    11:00 +19°C° 0 mm 1 mps 738 mmHg 70%
    12:00 +19°C° 0 mm 2 mps 738 mmHg 67%
    13:00 +20°C° 0 mm 2 mps 738 mmHg 64%
    14:00 +19°C° 0 mm 2 mps 738 mmHg 67%
    15:00 +19°C° 0 mm 2 mps 738 mmHg 70%
    16:00 +19°C° 0 mm 2 mps 738 mmHg 73%
    17:00 +17°C° 0 mm 2 mps 738 mmHg 80%
    18:00 +16°C° 0 mm 2 mps 738 mmHg 87%
    19:00 +14°C° 0 mm 1 mps 738 mmHg 95%
    20:00 +14°C° 0 mm 1 mps 739 mmHg 95%
    21:00 +13°C° 0 mm 1 mps 739 mmHg 96%
    22:00 +13°C° 0 mm 1 mps 739 mmHg 96%
    23:00 +13°C° 0 mm 1 mps 739 mmHg 96%

    27 September, Wednesday

    Time Temperature Precipitation Wind Pressure Humidity
    00:00 +13°C° 0 mm 1 mps 739 mmHg 96%
    01:00 +12°C° 0 mm 1 mps 739 mmHg 96%
    02:00 +12°C° 0 mm 1 mps 739 mmHg 96%
    03:00 +12°C° 0 mm 1 mps 739 mmHg 95%
    04:00 +12°C° 0 mm 1 mps 739 mmHg 95%
    05:00 +12°C° 0 mm 1 mps 740 mmHg 94%
    06:00 +13°C° 0 mm 1 mps 740 mmHg 93%
    07:00 +13°C° 0 mm 1 mps 740 mmHg 93%
    08:00 +15°C° 0 mm 1 mps 740 mmHg 86%
    09:00 +18°C° 0 mm 1 mps 740 mmHg 80%
    10:00 +19°C° 0 mm 1 mps 741 mmHg 73%
    11:00 +19°C° 0 mm 2 mps 740 mmHg 70%
    12:00 +20°C° 0 mm 2 mps 740 mmHg 67%
    13:00 +21°C° 0 mm 3 mps 740 mmHg 63%
    14:00 +21°C° 0.1 mm 3 mps 740 mmHg 65%
    15:00 +21°C° 0.1 mm 3 mps 740 mmHg 67%
    16:00 +21°C° 0.1 mm 3 mps 739 mmHg 68%
    17:00 +19°C° 0.1 mm 2 mps 740 mmHg 74%
    18:00 +18°C° 0.1 mm 2 mps 740 mmHg 81%
    19:00 +16°C° 0.1 mm 2 mps 740 mmHg 87%
    20:00 +16°C° 0.1 mm 2 mps 740 mmHg 88%
    21:00 +16°C° 0.1 mm 2 mps 740 mmHg 89%
    22:00 +16°C° 0.1 mm 1 mps 740 mmHg 90%
    23:00 +15°C° 0.1 mm 1 mps 740 mmHg 90%
    Show more